TimeEDT,TemperatureF,Dew PointF,Humidity,Sea Level PressureIn,VisibilityMPH,Wind Direction,Wind SpeedMPH,Gust SpeedMPH,PrecipitationIn,Events,Conditions,WindDirDegrees,DateUTC
12:54 AM,60.1,55.9,86,30.01,10.0,Calm,Calm,-,N/A,,Mostly Cloudy,0,2013-05-10 04:54:00
1:54 AM,60.1,55.9,86,30.01,10.0,Calm,Calm,-,N/A,,Mostly Cloudy,0,2013-05-10 05:54:00
2:54 AM,60.1,55.9,86,29.99,9.0,Calm,Calm,-,N/A,,Mostly Cloudy,0,2013-05-10 06:54:00
3:54 AM,59.0,55.9,90,29.99,10.0,Calm,Calm,-,N/A,,Partly Cloudy,0,2013-05-10 07:54:00
4:54 AM,62.1,55.0,78,29.97,10.0,Calm,Calm,-,N/A,,Overcast,0,2013-05-10 08:54:00
5:54 AM,61.0,55.0,81,29.96,10.0,SSE,3.5,-,N/A,,Scattered Clouds,160,2013-05-10 09:54:00
6:54 AM,61.0,54.0,78,29.97,10.0,South,4.6,-,N/A,,Scattered Clouds,170,2013-05-10 10:54:00
7:54 AM,62.6,55.4,77,30.00,10.0,SSE,3.5,-,N/A,,Scattered Clouds,160,2013-05-10 11:54:00
8:54 AM,69.8,57.2,64,30.00,10.0,SSE,3.5,-,N/A,,Partly Cloudy,150,2013-05-10 12:54:00
9:54 AM,73.0,57.0,57,29.97,10.0,South,8.1,-,N/A,,Partly Cloudy,190,2013-05-10 13:54:00
10:54 AM,75.9,57.0,52,29.96,10.0,SSW,11.5,17.3,N/A,,Scattered Clouds,200,2013-05-10 14:54:00
11:54 AM,77.0,57.0,50,29.95,10.0,SSW,13.8,17.3,N/A,,Mostly Cloudy,210,2013-05-10 15:54:00
12:54 PM,77.0,57.2,50,29.96,10.0,SW,10.4,-,N/A,,Mostly Cloudy,230,2013-05-10 16:54:00
1:54 PM,77.0,57.9,52,29.92,10.0,SW,17.3,20.7,0.01,,Mostly Cloudy,220,2013-05-10 17:54:00
2:20 PM,75.2,57.2,53,29.95,7.0,SSW,20.7,28.8,N/A,Rain-Thunderstorm,Light Thunderstorms and Rain,200,2013-05-10 18:20:00
2:54 PM,73.9,57.0,55,29.92,10.0,South,11.5,-,0.00,,Mostly Cloudy,180,2013-05-10 18:54:00
3:31 PM,73.4,57.2,57,29.94,10.0,South,6.9,-,N/A,,Mostly Cloudy,190,2013-05-10 19:31:00
3:36 PM,71.6,57.2,60,29.95,10.0,West,20.7,28.8,N/A,Thunderstorm,Thunderstorm,280,2013-05-10 19:36:00
3:54 PM,64.0,57.0,78,29.95,7.0,West,13.8,28.8,0.00,Rain-Thunderstorm,Thunderstorms and Rain,270,2013-05-10 19:54:00
4:03 PM,62.6,59.0,88,29.97,1.5,WSW,10.4,29.9,0.08,Rain-Thunderstorm,Heavy Thunderstorms and Rain,250,2013-05-10 20:03:00
4:07 PM,62.6,59.0,88,29.96,4.0,WSW,10.4,24.2,0.14,Rain-Thunderstorm,Heavy Thunderstorms and Rain,240,2013-05-10 20:07:00
4:28 PM,64.4,59.0,83,29.94,9.0,West,4.6,-,0.17,Thunderstorm,Thunderstorm,260,2013-05-10 20:28:00
4:54 PM,64.0,60.1,87,29.92,2.5,South,4.6,-,0.17,Rain-Thunderstorm,Light Thunderstorms and Rain,190,2013-05-10 20:54:00
5:01 PM,64.4,60.8,88,29.93,5.0,Calm,Calm,-,0.02,Rain-Thunderstorm,Light Thunderstorms and Rain,0,2013-05-10 21:01:00
5:13 PM,64.4,60.8,88,29.93,8.0,Calm,Calm,-,0.02,Rain,Light Rain,0,2013-05-10 21:13:00
5:54 PM,64.4,60.8,88,29.92,7.0,SE,3.5,-,N/A,,Mostly Cloudy,130,2013-05-10 21:54:00
6:54 PM,64.0,61.0,90,29.89,5.0,Calm,Calm,-,0.00,Rain,Light Rain,0,2013-05-10 22:54:00
7:04 PM,64.4,60.8,88,29.90,4.0,Calm,Calm,-,0.00,Rain,Light Rain,0,2013-05-10 23:04:00
7:31 PM,64.4,60.8,88,29.89,2.0,Calm,Calm,-,0.00,Rain,Light Rain,0,2013-05-10 23:31:00
7:45 PM,64.4,60.8,88,29.90,0.2,Calm,Calm,-,0.01,Fog-Rain,Light Rain,0,2013-05-10 23:45:00
7:54 PM,63.0,61.0,93,29.90,1.0,West,3.5,-,0.02,Rain,Light Rain,280,2013-05-10 23:54:00
8:15 PM,64.4,60.8,88,29.90,1.0,Calm,Calm,-,0.03,Rain,Light Rain,0,2013-05-11 00:15:00
8:54 PM,63.0,62.1,97,29.89,1.0,Calm,Calm,-,0.08,Rain,Light Rain,0,2013-05-11 00:54:00
9:44 PM,64.4,59.0,83,29.89,5.0,South,6.9,-,0.01,Rain,Light Rain,190,2013-05-11 01:44:00
9:54 PM,64.9,59.0,81,29.87,7.0,South,5.8,-,0.01,,Overcast,170,2013-05-11 01:54:00
10:54 PM,64.0,60.1,87,29.87,8.0,Calm,Calm,-,N/A,,Overcast,0,2013-05-11 02:54:00
11:13 PM,62.6,60.8,94,29.90,4.0,Calm,Calm,-,0.00,Rain,Light Rain,0,2013-05-11 03:13:00
11:54 PM,63.0,59.0,87,29.88,4.0,West,9.2,-,0.06,Rain,Rain,260,2013-05-11 03:54:00